TIROS 5

Satellite information

Favourite Embed

Satellite Type and Status

PAYLOADIN ORBIT

Key statistics

Satellite TIROS 5 at a glance.

Uptime

23188

Days in orbit

Revolutions

≈ 14.6

Per day

Orbit

LEO

Low Earth Orbit

Inclination

58.1

Latest

Satellite identification and parameters

Extended collection of information and parameters for TIROS 5.

Object identification

Identified? True

Debris? False

Object name: TIROS 5

International designator: 1962-025A

Object number (NORAD): 309

Object ID (CCSDS): 309

Country: UNITED STATES OF AMERICA (US)

Current information (Y/N): Y

RCS size: MEDIUM

Orbital parameters

Period: 98.604 minutes

Inclination: 58.0883 deg

SMA: 7070.041 km

Apoapsis: 822.715 km

Periapsis: 561.097 km

RAAN: 186.7173 deg

Eccentricy: 0.01850189

Argument of periapsis: 10.2794 deg

Mean anomaly: 350.1937 deg

Mean motion: 14.60393409 rev/day

Mean motion (dot): 0.00000756 rev/day2

B* drag term: 0.00015657279 1/REarth

Two-line elements (TLE)

Creation date: Dec. 12, 2025, 10:14 a.m.

Reference frame: TEME

Reference center: EARTH

Epoch: Dec. 12, 2025, 6:41 a.m. UTC

TLE line 0: 0 TIROS 5

TLE line 1: 1 00309U 62025A 25346.27910868 .00000756 00000-0 15657-3 0 9993

TLE line 2: 2 00309 58.0883 186.7173 0185019 10.2794 350.1937 14.60393409354522

Live tracking on map

Real-time ground track for satellite TIROS 5.

In-orbit conjunctions

A list of the most updated potential collisions computed for object TIROS 5.

Target Orbit TCA Probability of collision Miss distance Type
FENGYUN 1C DEB SSO 2025-12-09 04:11:30 0.0002277591 123.0 (m) DEBRIS
CZ-2D DEB SSO 2025-05-29 19:10:32 0.000254684 454.0 (m) DEBRIS
CZ-6A DEB LEO 2024-11-23 12:43:47 0.0002952953 715.0 (m) DEBRIS
CZ-6A DEB LEO 2024-11-05 03:42:12 0.002193468 548.0 (m) DEBRIS

Associated space launch

NASA's TIROS (Television & Infra-Red Observation Satellite) program was the first experimental weathersatellite program.

TIROS 5 was lifted into orbit during the mission ‘Thor Delta | Tiros 5’, on board a Thor Delta space rocket.

The launch took place on June 19, 1962, 12:19 p.m. from Space Launch Complex 17A.

For more information about the launch, click the button.

Launch to space Thor Delta | Tiros 5
Thor Delta | Tiros 5

Agency: N/A

Status: Launch Successful

Launch date: June 19, 1962, 12:19 p.m. UTC

Rocket: Thor Delta

Launch pad: Space Launch Complex 17A

Location: Cape Canaveral SFS, FL, USA

...

Latest news about this satellite

There are no fresh news available about this satellite. Check back as we update our databases every day.


Newsletter sign-up

Weekly statistics, charts and insights to help you stay on top of the space industry.